TimeCDT,TemperatureF,Dew PointF,Humidity,Sea Level PressureIn,VisibilityMPH,Wind Direction,Wind SpeedMPH,Gust SpeedMPH,PrecipitationIn,Events,Conditions,WindDirDegrees,DateUTC
12:15 AM,30.2,23.0,75,30.10,10.0,North,5.8,-,N/A,,Clear,10,2014-04-02 05:15:00
12:35 AM,28.4,23.0,80,30.10,10.0,NNE,8.1,-,N/A,,Clear,30,2014-04-02 05:35:00
12:55 AM,28.4,23.0,80,30.10,10.0,NNE,9.2,-,N/A,,Clear,30,2014-04-02 05:55:00
1:15 AM,30.2,26.6,86,30.10,10.0,NE,10.4,-,N/A,,Clear,40,2014-04-02 06:15:00
1:35 AM,30.2,26.6,86,30.10,10.0,NE,10.4,-,N/A,,Clear,40,2014-04-02 06:35:00
1:55 AM,28.4,26.6,93,30.10,10.0,NE,11.5,-,N/A,,Clear,40,2014-04-02 06:55:00
2:15 AM,28.4,26.6,93,30.10,10.0,NE,11.5,-,N/A,,Clear,40,2014-04-02 07:15:00
2:35 AM,28.4,26.6,93,30.08,10.0,NE,13.8,-,N/A,,Clear,40,2014-04-02 07:35:00
2:55 AM,28.4,26.6,93,30.07,10.0,NE,13.8,-,N/A,,Clear,40,2014-04-02 07:55:00
3:15 AM,28.4,26.6,93,30.07,10.0,NE,13.8,-,N/A,,Clear,40,2014-04-02 08:15:00
3:35 AM,28.4,26.6,93,30.06,10.0,NNE,15.0,-,N/A,,Clear,30,2014-04-02 08:35:00
3:55 AM,26.6,26.6,100,30.06,10.0,NE,15.0,-,N/A,,Clear,40,2014-04-02 08:55:00
4:15 AM,26.6,26.6,100,30.07,10.0,NE,11.5,-,N/A,,Clear,50,2014-04-02 09:15:00
4:35 AM,26.6,24.8,93,30.08,10.0,NE,12.7,-,N/A,,Clear,50,2014-04-02 09:35:00
4:55 AM,26.6,24.8,93,30.08,10.0,NE,11.5,-,N/A,,Clear,50,2014-04-02 09:55:00
5:15 AM,26.6,24.8,93,30.09,10.0,ENE,13.8,-,N/A,,Clear,60,2014-04-02 10:15:00
5:35 AM,26.6,24.8,93,30.08,10.0,ENE,17.3,-,N/A,,Clear,60,2014-04-02 10:35:00
5:55 AM,26.6,24.8,93,30.08,10.0,NE,16.1,-,N/A,,Partly Cloudy,50,2014-04-02 10:55:00
6:15 AM,24.8,24.8,100,30.07,10.0,ENE,13.8,-,N/A,,Mostly Cloudy,60,2014-04-02 11:15:00
7:35 AM,24.8,24.8,100,30.07,6.0,NE,21.9,-,N/A,,Overcast,50,2014-04-02 12:35:00
7:55 AM,24.8,24.8,100,30.06,6.0,ENE,17.3,-,N/A,,Overcast,70,2014-04-02 12:55:00
8:15 AM,-9999,-9999,N/A,30.08,5.0,ENE,17.3,-,N/A,,Overcast,70,2014-04-02 13:15:00
8:35 AM,26.6,26.6,100,30.08,7.0,East,16.1,21.9,N/A,,Overcast,90,2014-04-02 13:35:00
8:55 AM,26.6,26.6,100,30.08,7.0,East,18.4,-,N/A,,Overcast,80,2014-04-02 13:55:00
9:15 AM,-9999,-9999,N/A,30.08,6.0,East,15.0,-,N/A,,Overcast,80,2014-04-02 14:15:00
9:35 AM,28.4,28.4,100,30.08,8.0,East,16.1,-,N/A,,Overcast,80,2014-04-02 14:35:00
9:55 AM,28.4,28.4,100,30.07,10.0,East,19.6,-,N/A,,Overcast,80,2014-04-02 14:55:00
10:15 AM,30.2,28.4,93,30.06,10.0,ENE,18.4,-,N/A,,Overcast,60,2014-04-02 15:15:00
10:35 AM,32.0,28.4,87,30.06,10.0,East,18.4,-,N/A,,Mostly Cloudy,80,2014-04-02 15:35:00
10:55 AM,33.8,28.4,81,30.06,10.0,East,18.4,-,N/A,,Mostly Cloudy,80,2014-04-02 15:55:00
11:15 AM,35.6,26.6,70,30.06,10.0,East,15.0,24.2,N/A,,Partly Cloudy,80,2014-04-02 16:15:00
11:35 AM,35.6,26.6,70,30.05,10.0,East,16.1,24.2,N/A,,Clear,80,2014-04-02 16:35:00
11:55 AM,37.4,26.6,65,30.04,10.0,ENE,21.9,-,N/A,,Clear,70,2014-04-02 16:55:00
12:15 PM,39.2,26.6,61,30.04,10.0,ENE,20.7,-,N/A,,Partly Cloudy,70,2014-04-02 17:15:00
12:55 PM,42.8,26.6,53,30.02,10.0,East,20.7,26.5,N/A,,Scattered Clouds,80,2014-04-02 17:55:00
1:15 PM,44.6,24.8,46,30.01,10.0,East,24.2,-,N/A,,Partly Cloudy,80,2014-04-02 18:15:00
1:35 PM,46.4,24.8,43,30.00,10.0,ENE,21.9,32.2,N/A,,Clear,70,2014-04-02 18:35:00
1:55 PM,48.2,24.8,40,29.99,10.0,East,21.9,-,N/A,,Partly Cloudy,90,2014-04-02 18:55:00
2:15 PM,48.2,23.0,37,29.98,10.0,East,18.4,31.1,N/A,,Mostly Cloudy,90,2014-04-02 19:15:00
2:35 PM,48.2,24.8,40,29.97,10.0,ENE,23.0,-,N/A,,Scattered Clouds,70,2014-04-02 19:35:00
2:55 PM,48.2,24.8,40,29.96,10.0,ENE,24.2,-,N/A,,Scattered Clouds,70,2014-04-02 19:55:00
3:15 PM,46.4,24.8,43,29.95,10.0,ENE,23.0,-,N/A,,Overcast,70,2014-04-02 20:15:00
3:35 PM,46.4,24.8,43,29.95,10.0,East,24.2,-,N/A,,Overcast,80,2014-04-02 20:35:00
3:55 PM,46.4,24.8,43,29.93,10.0,East,24.2,-,N/A,,Overcast,90,2014-04-02 20:55:00
4:15 PM,46.4,28.4,50,29.92,10.0,East,25.3,31.1,N/A,,Overcast,80,2014-04-02 21:15:00
4:35 PM,44.6,28.4,53,29.92,10.0,East,24.2,-,N/A,,Overcast,90,2014-04-02 21:35:00
4:55 PM,44.6,28.4,53,29.92,10.0,East,21.9,28.8,N/A,,Overcast,80,2014-04-02 21:55:00
5:15 PM,44.6,30.2,57,29.91,10.0,East,25.3,-,N/A,,Overcast,80,2014-04-02 22:15:00
5:35 PM,44.6,30.2,57,29.91,10.0,East,25.3,33.4,N/A,,Overcast,90,2014-04-02 22:35:00
5:55 PM,44.6,30.2,57,29.90,10.0,East,28.8,-,N/A,,Overcast,80,2014-04-02 22:55:00
6:15 PM,44.6,30.2,57,29.90,10.0,East,24.2,-,N/A,,Overcast,90,2014-04-02 23:15:00
6:35 PM,42.8,30.2,61,29.90,10.0,East,24.2,32.2,N/A,,Overcast,80,2014-04-02 23:35:00
6:55 PM,42.8,30.2,61,29.89,10.0,East,24.2,29.9,N/A,,Overcast,80,2014-04-02 23:55:00
7:15 PM,42.8,30.2,61,29.88,10.0,East,24.2,29.9,N/A,,Overcast,80,2014-04-03 00:15:00
7:35 PM,42.8,30.2,61,29.88,10.0,East,23.0,31.1,N/A,,Overcast,80,2014-04-03 00:35:00
7:55 PM,42.8,30.2,61,29.88,10.0,East,21.9,29.9,N/A,,Overcast,90,2014-04-03 00:55:00
8:35 PM,42.8,30.2,61,29.88,10.0,East,19.6,27.6,N/A,,Overcast,90,2014-04-03 01:35:00
8:55 PM,41.0,30.2,65,29.90,10.0,East,18.4,26.5,N/A,,Overcast,90,2014-04-03 01:55:00
9:15 PM,41.0,32.0,70,29.92,8.0,East,16.1,24.2,N/A,,Overcast,90,2014-04-03 02:15:00
9:35 PM,39.2,35.6,87,29.92,5.0,East,15.0,-,N/A,,Overcast,90,2014-04-03 02:35:00
9:55 PM,39.2,35.6,87,29.92,7.0,East,13.8,-,N/A,,Overcast,80,2014-04-03 02:55:00
10:15 PM,39.2,35.6,87,29.92,10.0,East,13.8,-,N/A,,Overcast,80,2014-04-03 03:15:00
10:35 PM,39.2,35.6,87,29.91,10.0,ENE,13.8,-,N/A,,Overcast,70,2014-04-03 03:35:00
10:55 PM,39.2,35.6,87,29.92,10.0,ENE,13.8,20.7,N/A,,Overcast,70,2014-04-03 03:55:00
11:15 PM,39.2,33.8,81,29.92,10.0,ENE,15.0,20.7,N/A,,Overcast,70,2014-04-03 04:15:00
11:35 PM,39.2,35.6,87,29.90,10.0,East,12.7,18.4,N/A,,Overcast,80,2014-04-03 04:35:00
11:55 PM,39.2,35.6,87,29.88,10.0,East,17.3,-,N/A,,Overcast,80,2014-04-03 04:55:00